FW4212 Weather Reports


Display with metric or nautical units.
time (UTC)temp
F
wind
direction
speed
MPH
gust
MPH
rain 1hr
in
rain 24hr
in
rain mn
in
humidity
%
barometer
mb
20260504022020 50 223 0.0 0.0 0.00 0.00 0.00 68 1018.6
20260504021622 50 223 0.0 0.0 0.00 0.00 0.00 67 1018.5
20260504021020 51 223 0.0 0.0 0.00 0.00 0.00 67 1018.4
20260504020520 51 223 0.0 0.0 0.00 0.00 0.00 66 1018.3
20260504020019 51 223 0.0 0.0 0.00 0.00 0.00 65 1018.3
20260504015519 51 223 0.0 0.0 0.00 0.00 0.00 64 1018.3
20260504015022 52 211 0.0 0.0 0.00 0.00 0.00 63 1018.2
20260504014524 52 212 0.0 0.0 0.00 0.00 0.00 61 1017.9
20260504014018 52 209 0.0 0.0 0.00 0.00 0.00 60 1017.7
20260504013518 53 209 0.0 0.0 0.00 0.00 0.00 59 1017.6
20260504013021 53 209 0.0 0.0 0.00 0.00 0.00 58 1017.5
20260504012520 53 209 0.0 0.0 0.00 0.00 0.00 57 1017.5
20260504012018 54 209 0.0 0.0 0.00 0.00 0.00 54 1017.4
20260504011522 54 209 0.0 0.0 0.00 0.00 0.00 53 1017.5
20260504011017 55 209 0.0 0.0 0.00 0.00 0.00 52 1017.5
20260504010517 55 209 0.0 0.0 0.00 0.00 0.00 51 1017.3
20260504010017 55 209 0.0 0.0 0.00 0.00 0.00 51 1017.3
20260504005518 55 209 0.0 0.0 0.00 0.00 0.00 50 1017.3
20260504005021 56 209 0.0 0.0 0.00 0.00 0.00 50 1017.3
20260504004520 57 209 0.0 0.0 0.00 0.00 0.00 48 1017.2
20260504004017 58 209 0.0 0.0 0.00 0.00 0.00 47 1017.2
20260504003516 59 209 0.0 1.0 0.00 0.00 0.00 45 1017.2
20260504003016 59 221 0.0 1.0 0.00 0.00 0.00 43 1017.1
20260504002519 59 221 0.0 1.0 0.00 0.00 0.00 42 1017.1
20260504002018 59 221 0.0 1.0 0.00 0.00 0.00 42 1017.1
20260504001516 60 221 0.0 1.0 0.00 0.00 0.00 41 1016.9
20260504001016 60 221 0.0 1.0 0.00 0.00 0.00 40 1017.0
20260504000515 61 221 0.0 0.0 0.00 0.00 0.00 40 1017.0
20260504000015 61 221 0.0 1.0 0.00 0.00 0.00 38 1017.0
20260503235516 62 213 0.0 5.0 0.00 0.00 0.00 37 1017.0
20260503235015 63 217 0.0 5.0 0.00 0.00 0.00 35 1017.0
20260503234516 63 202 1.0 4.0 0.00 0.00 0.00 34 1016.9
20260503234015 64 205 0.0 5.0 0.00 0.00 0.00 34 1016.8
20260503233515 64 212 2.0 5.0 0.00 0.00 0.00 33 1016.8
20260503233014 64 211 1.0 3.0 0.00 0.00 0.00 32 1016.9
20260503232516 64 211 0.0 3.0 0.00 0.00 0.00 33 1016.7
20260503232014 65 221 0.0 3.0 0.00 0.00 0.00 33 1016.8
20260503231012 65 206 0.0 3.0 0.00 0.00 0.00 32 1016.7
20260503230611 65 259 1.0 3.0 0.00 0.00 0.00 33 1016.7
20260503230014 65 233 1.0 5.0 0.00 0.00 0.00 33 1016.7
20260503225513 66 207 0.0 7.0 0.00 0.00 0.00 33 1016.8
20260503225014 66 207 1.0 7.0 0.00 0.00 0.00 32 1016.8
20260503224514 66 294 1.0 3.0 0.00 0.00 0.00 35 1016.8
20260503224010 66 243 0.0 5.0 0.00 0.00 0.00 32 1016.8
20260503223512 66 190 1.0 6.0 0.00 0.00 0.00 35 1016.9
20260503223010 66 228 1.0 6.0 0.00 0.00 0.00 34 1016.9
20260503222509 66 211 1.0 5.0 0.00 0.00 0.00 32 1016.8
20260503222009 67 196 0.0 5.0 0.00 0.00 0.00 33 1016.8
20260503221508 67 210 0.0 5.0 0.00 0.00 0.00 35 1016.9
20260503221009 67 184 1.0 5.0 0.00 0.00 0.00 33 1016.9
20260503220508 67 205 1.0 6.0 0.00 0.00 0.00 33 1017.0
20260503220007 67 291 1.0 9.0 0.00 0.00 0.00 34 1017.1
20260503215507 67 227 3.0 9.0 0.00 0.00 0.00 33 1017.1
20260503215006 67 235 1.0 5.0 0.00 0.00 0.00 34 1017.1
20260503214506 67 242 1.0 5.0 0.00 0.00 0.00 34 1017.1
20260503214007 67 124 0.0 6.0 0.00 0.00 0.00 33 1017.2
20260503213506 67 235 2.0 6.0 0.00 0.00 0.00 33 1017.3
20260503213006 66 217 2.0 6.0 0.00 0.00 0.00 33 1017.4
20260503212505 67 214 2.0 7.0 0.00 0.00 0.00 31 1017.4
20260503212005 67 194 2.0 7.0 0.00 0.00 0.00 33 1017.4
20260503211504 66 201 2.0 7.0 0.00 0.00 0.00 32 1017.6
20260503211005 67 103 2.0 7.0 0.00 0.00 0.00 32 1017.7
20260503210507 66 172 3.0 7.0 0.00 0.00 0.00 32 1017.8
20260503210005 67 144 2.0 6.0 0.00 0.00 0.00 32 1017.8
20260503205504 66 297 2.0 7.0 0.00 0.00 0.00 31 1017.8
20260503205004 66 201 3.0 7.0 0.00 0.00 0.00 29 1017.9
20260503204512 66 183 1.0 6.0 0.00 0.00 0.00 31 1017.9
20260503204003 66 200 1.0 4.0 0.00 0.00 0.00 31 1018.2
20260503203504 65 171 1.0 7.0 0.00 0.00 0.00 28 1018.2
20260503203004 66 214 1.0 7.0 0.00 0.00 0.00 28 1018.2
20260503202503 66 266 1.0 7.0 0.00 0.00 0.00 31 1018.3
20260503202003 66 242 1.0 6.0 0.00 0.00 0.00 31 1018.3
20260503201506 66 213 1.0 7.0 0.00 0.00 0.00 29 1018.5
20260503201003 66 220 2.0 7.0 0.00 0.00 0.00 28 1018.5
20260503200502 65 162 1.0 10.0 0.00 0.00 0.00 29 1018.6
20260503200005 66 251 4.0 10.0 0.00 0.00 0.00 28 1018.8
20260503195501 66 221 3.0 6.0 0.00 0.00 0.00 29 1018.8
20260503195001 65 117 3.0 7.0 0.00 0.00 0.00 30 1019.0
20260503194501 66 249 1.0 7.0 0.00 0.00 0.00 30 1019.1
20260503194100 66 246 3.0 6.0 0.00 0.00 0.00 31 1019.1
20260503193600 65 146 1.0 6.0 0.00 0.00 0.00 29 1019.1
20260503193100 66 5 0.0 5.0 0.00 0.00 0.00 28 1019.1
20260503192558 66 25 2.0 5.0 0.00 0.00 0.00 37 1019.2
20260503192058 63 86 1.0 5.0 0.00 0.00 0.00 31 1019.2
20260503191558 64 238 2.0 4.0 0.00 0.00 0.00 31 1019.4
20260503191059 64 200 1.0 5.0 0.00 0.00 0.00 33 1019.3
20260503190600 64 133 1.0 5.0 0.00 0.00 0.00 35 1019.5
20260503190058 63 219 0.0 4.0 0.00 0.00 0.00 33 1019.5
20260503185558 64 58 1.0 4.0 0.00 0.00 0.00 34 1019.6
20260503185059 65 213 2.0 4.0 0.00 0.00 0.00 31 1019.7
20260503184605 65 261 2.0 7.0 0.00 0.00 0.00 33 1019.8
20260503184059 64 251 3.0 7.0 0.00 0.00 0.00 36 1019.9
20260503183558 64 242 2.0 8.0 0.00 0.00 0.00 31 1019.9
20260503183057 65 234 2.0 8.0 0.00 0.00 0.00 39 1019.9
20260503182557 64 119 4.0 11.0 0.00 0.00 0.00 34 1020.0
20260503182056 64 227 3.0 11.0 0.00 0.00 0.00 34 1020.1
20260503181601 64 286 2.0 4.0 0.00 0.00 0.00 31 1020.1
20260503181056 64 223 1.0 6.0 0.00 0.00 0.00 37 1020.3
20260503180555 63 255 2.0 6.0 0.00 0.00 0.00 34 1020.3
20260503180106 63 191 2.0 6.0 0.00 0.00 0.00 33 1020.3
20260503175554 63 337 1.0 6.0 0.00 0.00 0.00 42 1020.3
20260503175054 62 96 2.0 8.0 0.00 0.00 0.00 34 1020.5
20260503174553 62 190 3.0 8.0 0.00 0.00 0.00 36 1020.5
20260503174057 63 212 2.0 7.0 0.00 0.00 0.00 34 1020.6
20260503173552 61 282 1.0 6.0 0.00 0.00 0.00 38 1020.6
20260503173103 61 255 2.0 6.0 0.00 0.00 0.00 41 1020.6
20260503172552 60 277 3.0 6.0 0.00 0.00 0.00 39 1020.8
20260503172052 60 78 3.0 7.0 0.00 0.00 0.00 39 1020.9
20260503171551 60 46 0.0 4.0 0.00 0.00 0.00 37 1021.0
20260503171051 60 161 1.0 8.0 0.00 0.00 0.00 37 1021.0
20260503170552 61 242 3.0 8.0 0.00 0.00 0.00 38 1021.1
20260503150540 56 60 0.0 3.0 0.00 0.00 0.00 45 1022.4
20260503131024 51 196 1.0 8.0 0.00 0.00 0.00 61 1022.4
20260503130524 51 290 1.0 6.0 0.00 0.00 0.00 62 1022.4
20260503110504 35 261 0.0 0.0 0.00 0.00 0.00 89 1021.3
20260503081546 37 305 0.0 0.0 0.00 0.00 0.00 89 1019.2
20260503081048 36 305 0.0 0.0 0.00 0.00 0.00 89 1019.2
20260503080547 36 305 0.0 0.0 0.00 0.00 0.00 89 1019.2
20260503072540 37 305 0.0 0.0 0.00 0.00 0.00 87 1018.7
20260503072038 37 305 0.0 0.0 0.00 0.00 0.00 88 1018.6
20260503071536 37 305 0.0 0.0 0.00 0.00 0.00 88 1018.6
20260503071036 37 305 0.0 1.0 0.00 0.00 0.00 88 1018.6
20260503070540 37 305 0.0 3.0 0.00 0.00 0.00 87 1018.5
20260503055023 41 305 0.0 0.0 0.00 0.00 0.00 81 1018.1
20260503054535 40 305 0.0 0.0 0.00 0.00 0.00 81 1018.1
20260503054025 41 305 0.0 0.0 0.00 0.00 0.00 80 1018.1
20260503053522 41 305 0.0 0.0 0.00 0.00 0.00 80 1018.1
20260503053025 41 305 0.0 0.0 0.00 0.00 0.00 80 1018.2
20260503052521 41 305 0.0 0.0 0.00 0.00 0.00 80 1018.2
20260503052020 41 305 0.0 0.0 0.00 0.00 0.00 79 1018.3
20260503051520 41 305 0.0 0.0 0.00 0.00 0.00 78 1018.2
20260503051018 41 305 0.0 0.0 0.00 0.00 0.00 77 1018.2
20260503050518 42 305 0.0 0.0 0.00 0.00 0.00 77 1018.1
20260503050019 42 305 0.0 0.0 0.00 0.00 0.00 76 1018.0
20260503045517 42 305 0.0 0.0 0.00 0.00 0.00 76 1017.9
20260503045018 42 305 0.0 0.0 0.00 0.00 0.00 76 1018.0
20260503044516 42 305 0.0 0.0 0.00 0.00 0.00 76 1017.9
20260503044014 42 305 0.0 0.0 0.00 0.00 0.00 76 1017.8
20260503043513 42 305 0.0 0.0 0.00 0.00 0.00 75 1017.7
20260503043031 42 305 0.0 0.0 0.00 0.00 0.00 74 1017.8
20260503042519 43 305 0.0 0.0 0.00 0.00 0.00 73 1017.7
20260503042012 43 305 0.0 0.0 0.00 0.00 0.00 72 1017.6
20260503041511 43 305 0.0 0.0 0.00 0.00 0.00 72 1017.6
20260503041016 43 305 0.0 0.0 0.00 0.00 0.00 72 1017.4
20260503040509 43 305 0.0 0.0 0.00 0.00 0.00 71 1017.4
20260503040007 43 305 0.0 0.0 0.00 0.00 0.00 71 1017.3
20260503035507 44 305 0.0 0.0 0.00 0.00 0.00 71 1017.2
20260503035007 44 305 0.0 0.0 0.00 0.00 0.00 68 1017.2
20260503034506 44 305 0.0 0.0 0.00 0.00 0.00 68 1017.2
20260503034004 45 305 0.0 0.0 0.00 0.00 0.00 67 1017.1
20260503033504 45 305 0.0 0.0 0.00 0.00 0.00 65 1017.2
20260503033015 45 305 0.0 0.0 0.00 0.00 0.00 65 1017.2
20260503032504 45 305 0.0 0.0 0.00 0.00 0.00 65 1017.2
20260503032002 45 305 0.0 0.0 0.00 0.00 0.00 64 1017.1
20260503031502 46 305 0.0 0.0 0.00 0.00 0.00 62 1017.0
20260503031101 46 305 0.0 0.0 0.00 0.00 0.00 61 1017.1
20260503030559 46 305 0.0 0.0 0.00 0.00 0.00 61 1017.1
20260503030104 47 305 0.0 0.0 0.00 0.00 0.00 62 1017.0
20260503025557 47 305 0.0 0.0 0.00 0.00 0.00 61 1016.9
20260503025056 47 305 0.0 0.0 0.00 0.00 0.00 58 1017.0
20260503024555 48 305 0.0 0.0 0.00 0.00 0.00 56 1016.9
20260503024055 48 305 0.0 0.0 0.00 0.00 0.00 56 1016.8
20260503023554 48 305 0.0 0.0 0.00 0.00 0.00 56 1016.9
20260503023100 48 305 0.0 0.0 0.00 0.00 0.00 55 1016.8
20260503022551 49 305 0.0 0.0 0.00 0.00 0.00 55 1016.7